Regional Weather Roundup
Issued by NWS Bismarck, ND

Home | Current Version | Previous Version | Text Only | Print | Product List | Glossary Off
Versions: 1 2 3 4 5 6 7 8 9 10 11 12 13 14 15 16 17 18 19 20 21 22 23 24 25 26 27 28 29 30 31 32 33 34 35 36 37 38 39 40 41 42 43 44 45 46 47 48 49 50

000
ASUS43 KBIS 160520
RWRBIS

NWR BROADCAST TEXT
NATIONAL WEATHER SERVICE BISMARCK ND
1200 AM CDT TUE SEP 16 2014

NOTE: "FAIR" INDICATES FEW OR NO CLOUDS BELOW 12,000 FEET WITH NO
SIGNIFICANT WEATHER AND/OR OBSTRUCTIONS TO VISIBILITY.


CITY           SKY/WX    TMP DP  RH WIND       PRES   REMARKS
WILLISTON      CLEAR     39  33  79 CALM      30.06S
MINOT          CLEAR     48  37  65 SW7       30.06F
MINOT AFB      CLEAR     47  38  70 SW8       30.05F
BISMARCK       CLEAR     46  39  76 E3        30.12F
DICKINSON      CLEAR     45  38  76 S8        30.07F
GARRISON         N/A     46  41  82 CALM      30.08F
HETTINGER ARPT CLEAR     47  38  71 SE5       30.11S
JAMESTOWN      CLEAR     48  38  68 S8        30.13S
BEACH            N/A     41  39  93 S3        30.08F
CARRINGTON     FAIR      46  39  76 SW10      30.11F
CROSBY         FAIR      45  37  76 S9        30.05S
HARVEY         FAIR      43  37  81 SW6       30.09F
HAZEN          FAIR      41  36  81 CALM      30.10S
LINTON         FAIR      45  39  81 SE10      30.13F
MANDAN         FAIR      48  37  66 SW9       30.12S
OAKES            N/A     43  39  87 S9        30.17S
RUGBY          FAIR      46  39  76 S8        30.07S
STANLEY        FAIR      41  37  87 CALM      30.07F
TIOGA          FAIR      37  32  81 CALM      30.10S
WATFORD CITY   FAIR      37  34  87 CALM      30.05F
$$

CITY           SKY/WX    TMP DP  RH WIND       PRES   REMARKS
GRAND FORKS    CLEAR     52  40  63 SW9       30.07F
GRAND FORKS AF CLEAR     48  42  80 SW10      30.08F
DEVILS LAKE    CLEAR     55  39  54 SW7       30.06F
FARGO          CLEAR     54  38  54 SW14      30.13S
CANDO          FAIR      45  37  76 SW6       30.07S
CAVALIER       FAIR      48  37  66 SW6       30.03S
GRAFTON        FAIR      45  39  81 SW8       30.04F
GWINNER        CLEAR     43  39  87 SW6       30.18S
LANGDON        FAIR      41  36  81 SW8       30.05S
ROLLA          FAIR      48  37  66 SW12      30.06S
WALHALLA       FAIR      55  37  50 SW8       30.02F
$$

CITY           SKY/WX    TMP DP  RH WIND       PRES   REMARKS
ABERDEEN       CLEAR     41  35  79 S3        30.19S
MOBRIDGE       CLEAR     45  41  86 E8        30.12F
BUFFALO          N/A     51  42  71 CALM      30.03F
RAPID CITY     CLEAR     49  42  77 SE8       30.10F
GLASGOW        CLEAR     51  37  58 E10       30.03S
SIDNEY         CLEAR     39  34  81 CALM      30.07S
WOLF POINT     CLEAR     44  34  67 NE3       30.05S
GLENDIVE       CLEAR     48  36  61 NE6       30.07F
MILES CITY     CLEAR     52  41  66 NE7       30.04S
BAKER          CLEAR     51  44  77 S9        30.07F
$$

CITY           SKY/WX    TMP DP  RH WIND       PRES   REMARKS
BILLINGS       CLEAR     61  43  51 SE3       30.07R
GREAT FALLS    CLEAR     49  39  68 SW6       30.02S
REGINA         CLEAR     46  39  76 S6        30.01F
ESTEVAN        CLEAR     46  37  71 SW7       30.04S
$$




USA.gov is the U.S. government's official web portal to all federal, state and local government web resources and services.